Location: Unspecified
(17.6330°N, 0.0000°E)
Time: 03:21:39
(UTC+00:00)

A-11 Canister half - Visible Passes

Search period start: 25 June 2019 00:00
Search period end: 05 July 2019 00:00
Orbit: 1516 x 1684 km, 47.2° (Epoch: 23 June)

Date Brightness Start Highest point End Pass type
(mag) Time Alt. Az. Time Alt. Az. Time Alt. Az.
25 Jun 10.3 18:48:04 10° WNW 18:56:00 33° SW 19:03:56 10° S visible
28 Jun 11.0 04:59:24 10° SSE 05:06:10 20° SE 05:12:54 10° E visible
29 Jun 11.0 04:37:02 10° SSE 04:43:16 18° SE 04:49:27 10° E visible
30 Jun 11.0 04:14:47 10° SSE 04:20:20 16° SE 04:25:52 10° E visible
01 Jul 11.0 03:52:41 10° SSE 03:57:25 14° SE 04:02:09 10° E visible
02 Jul 11.1 03:30:49 10° SSE 03:34:30 12° SE 03:38:10 10° ESE visible
03 Jul 11.1 03:09:34 10° SE 03:11:34 11° SE 03:13:34 10° ESE visible
03 Jul 9.6 05:05:59 10° SSW 05:15:58 65° SE 05:25:57 10° NE visible
04 Jul 9.6 04:43:09 10° SSW 04:53:02 60° SE 05:02:56 10° NE visible
